CW6344 Weather Reports


time (UTC)temp
C
wind
direction
speed
KPH
gust
KPH
rain 1hr
cm
rain 24hr
cm
rain mn
cm
humidity
%
barometer
mb
20260831062442 25 223 0.0 3.2 0.00 0.00 0.00 89 1018.0
20260831060442 25 217 0.0 0.0 0.00 0.00 0.00 89 1017.9
20260831055442 25 213 0.0 0.0 0.00 0.00 0.00 89 1018.1
20260831054442 25 201 3.2 4.8 0.00 0.00 0.00 89 1018.1
20260831053442 25 230 0.0 1.6 0.00 0.00 0.00 89 1018.2
20260831052512 25 223 0.0 0.0 0.00 0.00 0.00 89 1018.2
20260831051442 25 201 0.0 0.0 0.00 0.00 0.00 89 1018.3
20260831050442 25 257 0.0 0.0 0.00 0.00 0.00 88 1018.3
20260831044442 25 238 0.0 0.0 0.00 0.00 0.00 88 1018.2
20260831043442 25 238 0.0 3.2 0.00 0.00 0.00 88 1018.2
20260831042442 25 238 0.0 0.0 0.00 0.00 0.00 87 1018.3
20260831041442 25 238 0.0 0.0 0.00 0.00 0.00 87 1018.3
20260831040442 25 238 0.0 0.0 0.00 0.00 0.00 86 1018.5
20260831035443 25 238 0.0 0.0 0.00 0.00 0.00 86 1018.6
20260831034442 25 238 0.0 0.0 0.00 0.00 0.00 85 1018.6
20260831033442 25 238 0.0 0.0 0.00 0.00 0.00 85 1018.8
20260831032443 25 238 0.0 0.0 0.00 0.00 0.00 85 1019.0
20260831031443 25 238 3.2 4.8 0.00 0.00 0.00 85 1019.0
20260831030513 25 256 0.0 1.6 0.00 0.00 0.00 85 1018.9
20260831025443 25 256 0.0 1.6 0.00 0.00 0.00 84 1019.0
20260831024443 26 256 0.0 0.0 0.00 0.00 0.00 84 1019.1
20260831022513 26 245 3.2 3.2 0.00 0.00 0.00 85 1019.0
20260831021443 26 238 0.0 1.6 0.00 0.00 0.00 85 1019.1
20260831020443 26 238 0.0 0.0 0.00 0.00 0.00 85 1019.1
20260831015443 26 240 0.0 0.0 0.00 0.00 0.00 84 1019.2
20260831014443 26 294 0.0 0.0 0.00 0.00 0.00 84 1019.0
20260831013442 26 223 0.0 0.0 0.00 0.00 0.00 84 1019.0
20260831012443 26 223 0.0 0.0 0.00 0.00 0.00 84 1019.2
20260831011443 26 223 0.0 0.0 0.00 0.00 0.00 83 1019.2
20260831010443 26 223 0.0 1.6 0.00 0.00 0.00 83 1019.0
20260831005443 26 223 0.0 0.0 0.00 0.00 0.00 83 1018.9
20260831004443 26 223 0.0 0.0 0.00 0.00 0.00 82 1018.9
20260831003443 26 223 0.0 0.0 0.00 0.00 0.00 82 1018.8
20260831002443 26 179 1.6 1.6 0.00 0.00 0.00 82 1018.8
20260831001443 27 207 0.0 0.0 0.00 0.00 0.00 81 1018.8
20260831000443 27 97 0.0 0.0 0.00 0.00 0.00 81 1018.7
20260830235443 26 88 0.0 0.0 0.00 0.00 0.00 82 1018.6
20260830234443 26 88 0.0 0.0 0.00 0.00 0.00 82 1018.6
20260830233443 26 88 0.0 0.0 0.00 0.00 0.00 83 1018.6
20260830232443 26 88 0.0 0.0 0.00 0.00 0.00 83 1018.6
20260830231443 27 88 0.0 0.0 0.00 0.00 0.00 81 1018.7
20260830230443 27 77 0.0 0.0 0.00 0.00 0.00 81 1018.6
20260830225443 27 115 0.0 0.0 0.00 0.00 0.00 79 1018.6
20260830224443 28 40 0.0 1.6 0.00 0.00 0.00 79 1018.5
20260830222443 28 83 0.0 1.6 0.00 0.00 0.00 78 1018.5
20260830221443 28 83 0.0 0.0 0.00 0.00 0.00 78 1018.5
20260830220443 28 84 0.0 0.0 0.00 0.00 0.00 78 1018.4
20260830214443 29 83 0.0 3.2 0.00 0.00 0.00 76 1018.4
20260830213443 30 163 0.0 4.8 0.00 0.00 0.00 75 1018.3
20260830212443 30 286 0.0 0.0 0.00 0.00 0.00 74 1018.3
20260830211443 30 238 6.4 6.4 0.00 0.00 0.00 68 1018.1
20260830210443 30 265 0.0 3.2 0.00 0.00 0.00 71 1018.2
20260830205443 30 215 1.6 1.6 0.00 0.00 0.00 68 1018.2
20260830204513 31 258 0.0 3.2 0.00 0.00 0.00 69 1018.3
20260830203443 30 329 0.0 3.2 0.00 0.00 0.00 68 1018.5
20260830202443 30 304 0.0 0.0 0.00 0.00 0.00 69 1018.6
20260830201443 30 131 0.0 1.6 0.00 0.00 0.00 67 1018.7
20260830200443 30 11 0.0 1.6 0.00 0.00 0.00 67 1018.8
20260830195443 30 233 1.6 1.6 0.00 0.00 0.00 69 1019.0
20260830194443 30 281 0.0 3.2 0.00 0.00 0.00 70 1019.1
20260830193443 30 323 0.0 3.2 0.00 0.00 0.00 70 1019.2
20260830192443 30 283 0.0 3.2 0.00 0.00 0.00 67 1019.3
20260830191443 30 269 0.0 3.2 0.00 0.00 0.00 66 1019.4
20260830190443 30 217 0.0 1.6 0.00 0.00 0.00 69 1019.6
20260830185443 30 238 0.0 4.8 0.00 0.00 0.00 66 1019.8
20260830184443 30 135 1.6 3.2 0.00 0.00 0.00 67 1019.9
20260830183443 30 308 0.0 3.2 0.00 0.00 0.00 68 1020.1
20260830182443 30 283 0.0 4.8 0.00 0.00 0.00 68 1020.2
20260830181443 30 219 3.2 4.8 0.00 0.00 0.00 73 1020.4
20260830180443 30 150 0.0 1.6 0.00 0.00 0.00 70 1020.6
20260830175443 30 267 1.6 3.2 0.00 0.00 0.00 70 1020.7
20260830174513 29 146 0.0 3.2 0.00 0.00 0.00 70 1020.7
20260830173443 30 288 0.0 3.2 0.00 0.00 0.00 72 1020.8
20260830172443 29 93 0.0 3.2 0.00 0.00 0.00 70 1020.9
20260830171443 29 256 1.6 4.8 0.00 0.00 0.00 71 1021.1
20260830170513 29 200 3.2 9.7 0.00 0.00 0.00 71 1021.2
20260830165443 28 234 0.0 4.8 0.00 0.00 0.00 71 1021.2
20260830164513 28 148 4.8 4.8 0.00 0.00 0.00 73 1021.3
20260830163443 28 259 0.0 3.2 0.00 0.00 0.00 74 1021.3
20260830162443 28 241 4.8 4.8 0.00 0.00 0.00 73 1021.4
20260830161443 28 285 0.0 3.2 0.00 0.00 0.00 76 1021.4
20260830160443 28 266 1.6 4.8 0.00 0.00 0.00 74 1021.5
20260830155443 28 344 4.8 6.4 0.00 0.00 0.00 73 1021.5
20260830154443 27 206 1.6 4.8 0.00 0.00 0.00 76 1021.5
20260830152443 27 270 0.0 8.0 0.00 0.00 0.00 77 1021.8
20260830150443 26 18 0.0 3.2 0.00 0.00 0.00 78 1021.8
20260830145443 26 240 3.2 4.8 0.00 0.00 0.00 78 1021.9
20260830144443 26 315 0.0 3.2 0.00 0.00 0.00 79 1021.9
20260830143443 26 250 4.8 4.8 0.00 0.00 0.00 79 1021.9
20260830142443 26 312 0.0 4.8 0.00 0.00 0.00 79 1021.9
20260830140443 25 195 0.0 1.6 0.00 0.00 0.00 82 1022.0
20260830135443 25 245 0.0 1.6 0.00 0.00 0.00 82 1022.1
20260830134443 25 91 0.0 1.6 0.00 0.00 0.00 83 1022.2
20260830133443 25 275 0.0 1.6 0.00 0.00 0.00 84 1022.3
20260830132513 25 153 1.6 6.4 0.00 0.00 0.00 85 1022.4
20260830131443 24 180 0.0 0.0 0.00 0.00 0.00 87 1022.5
20260830130443 24 103 0.0 4.8 0.00 0.00 0.00 89 1022.6
20260830125443 23 258 0.0 0.0 0.00 0.00 0.00 91 1022.7
20260830124443 23 258 0.0 0.0 0.00 0.00 0.00 92 1022.8
20260830122443 22 258 0.0 0.0 0.00 0.00 0.00 93 1022.9
20260830121443 22 258 0.0 0.0 0.00 0.00 0.00 93 1023.0
20260830120443 21 258 0.0 0.0 0.00 0.00 0.00 93 1023.0
20260830115443 21 258 0.0 0.0 0.00 0.00 0.00 93 1023.0
20260830114443 21 258 0.0 0.0 0.00 0.00 0.00 93 1023.0
20260830113443 20 258 0.0 0.0 0.00 0.00 0.00 93 1022.8
20260830112443 20 258 0.0 0.0 0.00 0.00 0.00 93 1022.7
20260830110543 20 258 0.0 0.0 0.00 0.00 0.00 93 1022.6
20260830105443 20 258 0.0 0.0 0.00 0.00 0.00 93 1022.6
20260830104514 20 258 0.0 0.0 0.00 0.00 0.00 93 1022.4
20260830103443 20 257 0.0 0.0 0.00 0.00 0.00 93 1022.2
20260830102443 20 257 0.0 0.0 0.00 0.00 0.00 93 1022.3
20260830101444 20 257 0.0 0.0 0.00 0.00 0.00 93 1022.3
20260830100444 20 257 0.0 0.0 0.00 0.00 0.00 93 1022.2
20260830095443 20 257 0.0 0.0 0.00 0.00 0.00 93 1022.3
20260830094443 20 257 0.0 0.0 0.00 0.00 0.00 93 1022.4
20260830093444 20 257 0.0 0.0 0.00 0.00 0.00 93 1022.3
20260830092444 20 257 0.0 0.0 0.00 0.00 0.00 92 1022.2
20260830091444 20 257 0.0 0.0 0.00 0.00 0.00 93 1022.1
20260830090514 20 257 0.0 0.0 0.00 0.00 0.00 92 1022.1
20260830085443 20 257 0.0 0.0 0.00 0.00 0.00 92 1022.1
20260830084444 20 257 0.0 0.0 0.00 0.00 0.00 92 1022.2
20260830082444 20 257 0.0 0.0 0.00 0.00 0.00 92 1022.2
20260830081443 20 257 0.0 0.0 0.00 0.00 0.00 92 1022.4
20260830080514 20 257 0.0 0.0 0.00 0.00 0.00 92 1022.4
20260830075444 20 257 0.0 0.0 0.00 0.00 0.00 92 1022.4
20260830074444 20 257 0.0 0.0 0.00 0.00 0.00 92 1022.3
20260830073443 20 257 0.0 0.0 0.00 0.00 0.00 92 1022.3
20260830072444 20 257 0.0 0.0 0.00 0.00 0.00 92 1022.3
20260830071444 20 257 0.0 0.0 0.00 0.00 0.00 92 1022.4
20260830070444 20 257 0.0 0.0 0.00 0.00 0.00 92 1022.4
20260830065444 20 257 0.0 0.0 0.00 0.00 0.00 92 1022.5
20260830064444 21 257 0.0 0.0 0.00 0.00 0.00 91 1022.5
20260830063444 21 257 0.0 0.0 0.00 0.00 0.00 92 1022.5